Starlink 5873

operational
NORAD ID: 56490 Int'l Des: 2023-064 Owner: SPXS Country: US Constellation: starlink
LEOCIRCULAR

关于 Starlink 5873

正在加载描述...

实时位置

正在加载3D地球...

即将过境

高度历史

Altitude vs Time

uPlot chart will show altitude changes over time

两行轨道根数

1 56490U 23064AU 25307.61261116 -.00001391 00000-0 -10883-3 0 9999
2 56490 69.9998 62.4921 0003156 268.2168 91.8629 14.98333317137343
Epoch: Nov 3, 2025 • Age: 21 hours

当前状态

高度 576.6 km
速度 7.57 km/s
星下点 -12.63°S, 160.39°W
发射日期 May 10, 2023
运行时间 2.4 years
类型 internet

技术详情

分类 Payload
质量 305.00 kg
干质量 290.00 kg
总质量 305.00 kg
长度 0.20 m
直径 2.80 m
跨度 9.00 m
形状 Box + pan
制造商 SPXS
平台类型 Starlink
阶段状态 In Orbit
所有者/国家 SPXS/US

大型星座

Loading constellations...